THORAD AGENA D DEB, 4653

Orbit data source: Space-Track

THORAD AGENA D DEB, 4653 is space debris in SSO originally from a launch on Wed, 08 Apr 1970 UTC launched from the Air Force Western Test Range (AFWTR). Debris objects in space refer to the collection of defunct objects orbiting the Earth. Examples of debris include non-operational satellites, rocket bodies, and fragments generated from explosions, collisions, or faulty payload assembly.

Loading next visibility...
Identifier
4653, 1970-025AM
Orbit
SSO
Country
Flag of USUS
Related business
Manufacturer
Unknown
Mission
Spacecraft
Bus & Motor
Unknown
Mass
Unknown
Launch date (UTC)
1970-04-08 (56 years ago)
Launch vehicle
Unknown
Launch site
Air Force Western Test Range (AFWTR)
Object type
Payload
Rocket body
Debris
Shape & HBR
Unknown shape, 0.1 m
Radar Cross Section
Small (<0.1 m²)

Expand to show TLE details & history
Last TLE update: 15 hours ago

TLE from 15 hours ago
0 THORAD AGENA D DEB
1 04653U 70025AM  25351.50649676  .00009389  00000-0  18691-2 0  9997
2 04653  99.9945 263.2849 0012298  93.9593 266.3008 14.62289105840600
Epoch: 2025-12-17T12:09Z
TLE epoch observation values (Epoch: 2025-12-17T12:09:21.320Z)
Latitude
-0.00004°
Longitude
-5.4293°
Altitude
689.291 km
Speed
7.511 km/s
True Right ascension
17h 33m 08s
True Declination
0° 00' 00"
Sunlit
Object was in daylight at epoch
Visualization orbit readout
Latitude
Unknown
Longitude
Unknown
Altitude
Unknown
Speed
Unknown
Apparent Right ascension
Unknown
Apparent Declination
Unknown
Sunlit
N/A
Visualization observer readout
Local Sidereal Time
01:50:05
Azimuth
Unknown
Elevation
Unknown
Doppler factor
Unknown
Orbital elements
Apogee altitude
691.646 km
Perigee altitude
674.278 km
Semi-major axis
7,061.099 km
Eccentricity
0.00123
Inclination
99.9945°
RAAN
263.2849°
Arg. of periapsis
93.9593°
True anomaly
266.16018°
Mean anomaly
266.3008°
Eccentric anomaly
266.23049°
Mean motion
3.65792 °/min
Orbital period
98.42 mins
BSTAR
0.0018691

Documentation

Showing up to 5 results
|